"Pseudo-MPEC" for CAPY362

Created 2024 Sep 7 12:22:05 UT using Find_Orb

Click here for an explanation of pseudo-MPECs

 
 Astrometry: 
     CAPY362*1C2024 09 03.19500421 30 05.296-04 08 51.22   ~935b 21.09GVNEOCPG96
     CAPY362 1C2024 09 03.20067421 30 05.310-04 08 44.12   ~935b 20.82GVNEOCPG96
     CAPY362 1C2024 09 03.20634221 30 05.346-04 08 38.40   ~935b 21.64GVNEOCPG96
     CAPY362 1C2024 09 03.21200721 30 05.422-04 08 31.49   ~935b 21.21GVNEOCPG96
     CAPY362  C2024 09 03.27201421 30 05.679-04 07 24.06   ~937M 21.4 GVNEOCPH01
     CAPY362  C2024 09 03.28155921 30 05.741-04 07 13.07   ~937M 21.0 GVNEOCPH01
     CAPY362  C2024 09 03.28553521 30 05.764-04 07 08.49   ~937M 21.5 GVNEOCPH01
     CAPY362  C2024 09 03.29344221 30 05.813-04 06 59.59   ~937M 21.6 GVNEOCPH01
     CAPY362 KC2024 09 03.31585421 30 06.090-04 06 31.00   ~938bx20.85GVNEOCPI52
     CAPY362 KC2024 09 03.31927221 30 06.090-04 06 29.10   ~938b 21.47GVNEOCPI52
     CAPY362 KC2024 09 03.32268621 30 06.040-04 06 26.20   ~938b 21.33GVNEOCPI52
     CAPY362 KC2024 09 04.25094321 30 22.090-03 48 52.00   ~946qx      VNEOCPI52
     CAPY362 KC2024 09 04.25559321 30 22.140-03 48 45.10   ~946q       VNEOCPI52
     CAPY362 KC2024 09 04.26026721 30 22.120-03 48 39.90   ~946q       VNEOCPI52
     CAPY362 KC2024 09 04.26491021 30 22.120-03 48 33.30   ~946q 22.22GVNEOCPI52
     CAPY362 !C2024 09 04.31939 21 30 22.82 -03 47 31.6    ~948b 20.3 GVNEOCP673
     CAPY362 !C2024 09 04.32444 21 30 22.83 -03 47 25.7    ~948b       VNEOCP673
     CAPY362  C2024 09 05.27143021 30 41.032-03 29 27.67   ~957b 21.1 GVNEOCPH01
     CAPY362  C2024 09 05.27638921 30 41.086-03 29 22.02   ~957b 21.1 GVNEOCPH01
     CAPY362  C2024 09 05.29261921 30 41.272-03 29 03.43   ~957b 21.0 GVNEOCPH01
     CAPY362  C2024 09 05.30349021 30 41.400-03 28 51.06   ~957b 21.1 GVNEOCPH01
     CAPY362 KC2024 09 07.28250921 31 26.980-02 51 18.94   ~977M 22.59GVNEOCPI52
     CAPY362 KC2024 09 07.28903621 31 27.127-02 51 11.41   ~977M 21.65GVNEOCPI52
     CAPY362 KC2024 09 07.29366121 31 27.181-02 51 06.34   ~977M 21.53GVNEOCPI52
     CAPY362 KC2024 09 07.29823921 31 27.250-02 51 00.58   ~977M 21.55GVNEOCPI52

Station data:
(673) Table Mountain Observatory, Wrightwood  (N34.381485 W117.682170)
   US/California.  Observers J. Chesley, J. Pittichova. Measurer W. M. Owen
   Jr. 0.61-m f/16 reflector + CCD.
(G96) Mt. Lemmon Survey  (N32.442729 W110.788720)  US/Arizona.  Observer E.
   J. Christensen. 1.5-m reflector + 10K CCD.
(H01) Magdalena Ridge Observatory, Socorro  (N33.984833 W107.189333)  US/New
   Mexico.  Observers W. H. Ryan, E. V. Ryan. Measurer W. H. Ryan. 2.4-m
   f/8.9 reflector + CCD.
(I52) Steward Observatory, Mt. Lemmon Station  (N32.442570 W110.788920)
   US/Arizona.  Observers T. A. Pruyne, B. M. Africano, E. J. Christensen, G.
   A. Farneth, D. C. Fuls, A. R. Gibbs, A. D. Grauer, H. Gröller, J. A.
   Johnson, R. A. Kowalski, S. M. Larson, G. J. Leonard, D. Rankin, R. L.
   Seaman, F. C. Shelly, K. W. Wierzchoś. 1.0-m prime focus + CCD.

Orbital elements:  CAPY362
   Perihelion 2024 Oct 1.01294 +/- 0.145 TT =  0:18:37 (JD 2460584.51294)
Epoch 2024 Sep  7.0 TT = JDT 2460560.5   Earth MOID: 0.2986   Ma: 0.0724
M 355.01103519 +/- 0.08             (J2000 ecliptic)             AutoNEOCP
n   0.20776154 +/- 0.00386          Peri.   50.61907 +/- 0.18
a   2.82331461 +/- 0.0356           Node   308.84524 +/- 0.052
e   0.5424035 +/- 0.00498           Incl.    5.42116 +/- 0.037
P   4.74394                H 22.55  G  0.15   U  9.0
q 1.29193873 +/- 0.00221    Q 4.35469048 +/- 0.0691
23 of 25 observations 2024 Sept. 3-7; mean residual 0".40
Residuals in arcseconds: 
240903 G96  .04-  .19-    240903 I52  .46+  .48+    240905 H01  .19-  .19+    
240903 G96  .36-  .48+    240903 I52  .64-  .52-    240905 H01  .19-  .26+    
240903 G96  .35-  .23-    240904 I52( .88+  2.7-)   240905 H01  .18-  .21+    
240903 G96  .27+  .25+    240904 I52  1.0+  1.1-    240907 I52  .21-  .15-    
240903 H01  .11+  .03-    240904 I52  .17+  1.3-    240907 I52  .38+  .05-    
240903 H01  .14+  .08+    240904 I52  .41-  .06+    240907 I52  .04+  .25-    
240903 H01  .10+  .12+    240904 673  .29+  .37+    240907 I52  .08-  .29+    
240903 H01  .06+  .00     240904 673  .25-  .50+    
240903 I52( .81+  2.5+)   240905 H01  .17-  .20+    

Ephemerides (geocentric):
Date (UTC) HH   RA             Dec           delta  r     elong  mag " sig PA
---- --------  ------------   ------------  ------ ------ -----  --- --------
2024 09 07 12  21 31 33.003   -02 46 56.41  .33120 1.3181 156.5 21.7 .236  74
2024 09 07 13  21 31 34.097   -02 46 09.06  .33117 1.3180 156.5 21.7 .247  76
2024 09 07 14  21 31 35.196   -02 45 21.71  .33115 1.3179 156.5 21.7 .258  77
2024 09 07 15  21 31 36.299   -02 44 34.36  .33113 1.3178 156.4 21.7 .269  79
2024 09 07 16  21 31 37.408   -02 43 47.02  .33110 1.3177 156.4 21.7 .281  80
2024 09 07 17  21 31 38.521   -02 42 59.68  .33108 1.3176 156.4 21.7 .293  81
2024 09 07 18  21 31 39.639   -02 42 12.35  .33106 1.3175 156.3 21.7 .306  83
2024 09 07 19  21 31 40.761   -02 41 25.01  .33103 1.3175 156.3 21.7 .319  84
2024 09 07 20  21 31 41.889   -02 40 37.68  .33101 1.3174 156.3 21.7 .332  85
2024 09 07 21  21 31 43.022   -02 39 50.36  .33099 1.3173 156.3 21.7 .346  86
2024 09 07 22  21 31 44.159   -02 39 03.03  .33097 1.3172 156.2 21.7 .359  86
2024 09 07 23  21 31 45.301   -02 38 15.71  .33094 1.3171 156.2 21.7 .374  87
2024 09 08 00  21 31 46.448   -02 37 28.39  .33092 1.3170 156.2 21.7 .388  88
2024 09 08 01  21 31 47.600   -02 36 41.08  .33090 1.3169 156.1 21.7 .403  89
2024 09 08 02  21 31 48.757   -02 35 53.77  .33088 1.3168 156.1 21.7 .418  89
2024 09 08 03  21 31 49.919   -02 35 06.46  .33086 1.3167 156.1 21.7 .433  90
2024 09 08 04  21 31 51.085   -02 34 19.16  .33084 1.3167 156.0 21.7 .448  91
2024 09 08 05  21 31 52.257   -02 33 31.86  .33082 1.3166 156.0 21.7 .464  91
2024 09 08 06  21 31 53.433   -02 32 44.56  .33080 1.3165 156.0 21.7 .480  92
2024 09 08 07  21 31 54.615   -02 31 57.26  .33078 1.3164 155.9 21.7 .496  92
2024 09 08 08  21 31 55.801   -02 31 09.97  .33076 1.3163 155.9 21.7 .513  93
2024 09 08 09  21 31 56.992   -02 30 22.69  .33074 1.3162 155.9 21.7 .530  93
2024 09 08 10  21 31 58.188   -02 29 35.41  .33072 1.3161 155.8 21.7 .547  94
2024 09 08 11  21 31 59.389   -02 28 48.13  .33070 1.3160 155.8 21.7 .564  94
2024 09 08 12  21 32 00.595   -02 28 00.85  .33068 1.3159 155.8 21.7 .582  95
2024 09 08 13  21 32 01.806   -02 27 13.58  .33066 1.3159 155.7 21.7 .600  95
2024 09 08 14  21 32 03.022   -02 26 26.31  .33064 1.3158 155.7 21.7 .618  95
2024 09 08 15  21 32 04.243   -02 25 39.05  .33062 1.3157 155.7 21.7 .636  96
2024 09 08 16  21 32 05.469   -02 24 51.79  .33060 1.3156 155.6 21.7 .655  96
2024 09 08 17  21 32 06.699   -02 24 04.53  .33058 1.3155 155.6 21.7 .673  96
2024 09 08 18  21 32 07.935   -02 23 17.28  .33056 1.3154 155.6 21.7 .692  97
2024 09 08 19  21 32 09.176   -02 22 30.03  .33055 1.3153 155.5 21.7 .712  97
2024 09 08 20  21 32 10.421   -02 21 42.79  .33053 1.3153 155.5 21.7 .731  97
2024 09 08 21  21 32 11.672   -02 20 55.55  .33051 1.3152 155.5 21.7 .751  98
2024 09 08 22  21 32 12.927   -02 20 08.32  .33049 1.3151 155.4 21.7 .771  98
2024 09 08 23  21 32 14.188   -02 19 21.08  .33048 1.3150 155.4 21.7 .792  98
2024 09 09 00  21 32 15.454   -02 18 33.86  .33046 1.3149 155.4 21.7 .812  98
2024 09 09 01  21 32 16.724   -02 17 46.63  .33044 1.3148 155.3 21.7 .833  99
2024 09 09 02  21 32 18.000   -02 16 59.42  .33043 1.3147 155.3 21.7 .854  99
2024 09 09 03  21 32 19.280   -02 16 12.20  .33041 1.3147 155.3 21.7 .875  99
2024 09 09 04  21 32 20.566   -02 15 24.99  .33039 1.3146 155.3 21.7 .897  99
2024 09 09 05  21 32 21.856   -02 14 37.79  .33038 1.3145 155.2 21.7 .919  99
2024 09 09 06  21 32 23.152   -02 13 50.59  .33036 1.3144 155.2 21.7 .941 100
2024 09 09 07  21 32 24.453   -02 13 03.39  .33035 1.3143 155.2 21.7 .963 100
2024 09 09 08  21 32 25.758   -02 12 16.20  .33033 1.3142 155.1 21.7 .985 100
2024 09 09 09  21 32 27.069   -02 11 29.02  .33032 1.3141 155.1 21.7 1.01 100
2024 09 09 10  21 32 28.385   -02 10 41.83  .33030 1.3141 155.1 21.7 1.03 100
2024 09 09 11  21 32 29.706   -02 09 54.66  .33029 1.3140 155.0 21.7 1.05 100